SM4IVE-5 Odensbacken SE current weather conditions

sailwx.info

Wind from 348 at 2 knots gusting 11

Air temperature 4.4° C
Dewpoint 0.6° C

Last reported at 2019-Mar-25 09:05 UTC.
Time now 2019-Mar-25 09:33 UTC

Location: N 59°08' E 015°32'.
View on Google Maps.

See reports from other nearby stations

  
Tides and Currents Weather Stations Pressure Air Temp Water Temp Dewpoint Dewpoint Depression Visibility Wind Speed Wind Dir Waves Ship Positions
date/time (UTC)wind fromknots sea level pressurealtimeterstation pressurevisibilityair tempwater tempwave heightnotes
2019-Mar-25 09:05 348 2 gusting 11 4.4
2019-Mar-25 09:00 017 2 gusting 13 3.9
2019-Mar-25 08:55 005 6 gusting 13 3.3
2019-Mar-25 08:50 355 5 gusting 13 2.8
2019-Mar-25 08:45 355 6 gusting 13 2.8
2019-Mar-25 08:40 005 4 gusting 13 2.8
2019-Mar-25 08:35 360 6 gusting 13 2.8
2019-Mar-25 08:30 005 6 gusting 12 2.2
2019-Mar-25 08:25 333 6 gusting 15 2.2
2019-Mar-25 08:20 348 6 gusting 15 2.2
2019-Mar-25 08:15 013 8 gusting 13 2.2
2019-Mar-25 08:10 026 2 gusting 13 2.8
2019-Mar-25 08:06 017 7 gusting 14 2.8
2019-Mar-25 08:00 009 8 gusting 14 2.8
2019-Mar-25 07:55 024 7 gusting 14 3.3
2019-Mar-25 07:50 005 6 gusting 14 3.9
2019-Mar-25 07:45 029 7 gusting 14 3.9
2019-Mar-25 07:40 360 4 gusting 16 4.4
2019-Mar-25 07:35 342 7 gusting 16 4.4
2019-Mar-25 07:30 360 6 gusting 13 4.4
2019-Mar-25 07:25 013 3 gusting 9 3.9
2019-Mar-25 07:20 017 3 gusting 9 3.3
2019-Mar-25 07:15 042 2 gusting 12 2.8
2019-Mar-25 07:10 033 6 gusting 13 2.8
2019-Mar-25 07:05 355 6 gusting 13 2.8
2019-Mar-25 07:00 349 4 gusting 13 2.8
2019-Mar-25 06:55 046 5 gusting 13 2.2
2019-Mar-25 06:50 019 2.2
2019-Mar-25 06:45 028 0 gusting 3 2.2
2019-Mar-25 06:40 346 2.2
2019-Mar-25 06:35 318 2.2
2019-Mar-25 06:30 317 2.2
2019-Mar-25 06:25 314 1.7
2019-Mar-25 06:20 306 1.7
2019-Mar-25 06:15 309 1.7
2019-Mar-25 06:10 288 1.1
2019-Mar-25 06:06 287 1.1
2019-Mar-25 06:00 283 1.1
2019-Mar-25 05:55 281 1.1
2019-Mar-25 05:50 281 0.6
2019-Mar-25 05:45 278 0.6
2019-Mar-25 05:40 278 -0.0
2019-Mar-25 05:35 277 -0.0
2019-Mar-25 05:30 278 -0.0
2019-Mar-25 05:25 277 -0.0
2019-Mar-25 05:20 278 0.6
2019-Mar-25 05:15 278 0.6
2019-Mar-25 05:05 277 0.6
2019-Mar-25 05:00 278 1.1
2019-Mar-25 04:55 277 1.1
2019-Mar-25 04:50 280 1.1
2019-Mar-25 04:45 280 1.1
2019-Mar-25 04:40 286 1.1
2019-Mar-25 04:35 286 1.1
2019-Mar-25 04:30 286 1.1
2019-Mar-25 04:25 276 1.7
2019-Mar-25 04:20 275 1.7
2019-Mar-25 04:15 256 1.7
2019-Mar-25 04:10 248 1 gusting 3 1.7
2019-Mar-25 04:06 267 1 gusting 3 1.7
2019-Mar-25 04:00 254 1.7
2019-Mar-25 03:55 263 1 gusting 4 1.1
2019-Mar-25 03:50 242 0 gusting 4 1.1
2019-Mar-25 03:45 238 0 gusting 2 1.1
2019-Mar-25 03:40 227 0 gusting 2 1.1
2019-Mar-25 03:35 228 0 gusting 4 1.1
2019-Mar-25 03:30 248 0 gusting 4 1.1
2019-Mar-25 03:25 227 0 gusting 2 1.1
2019-Mar-25 03:20 209 0 gusting 2 1.1
2019-Mar-25 03:15 215 0 gusting 2 1.1
2019-Mar-25 03:10 223 1.7
2019-Mar-25 03:05 218 1.7
2019-Mar-25 03:00 207 0 gusting 2 1.1
2019-Mar-25 02:55 227 0 gusting 2 1.7
2019-Mar-25 02:50 223 0 gusting 2 1.7
2019-Mar-25 02:45 211 1.7
2019-Mar-25 02:40 210 1.7
2019-Mar-25 02:35 209 1.7
2019-Mar-25 02:30 218 1.7
2019-Mar-25 02:25 218 1.7
2019-Mar-25 02:20 211 1.7
2019-Mar-25 02:15 211 1.7
2019-Mar-25 02:10 209 1.7
2019-Mar-25 02:05 209 1.7
2019-Mar-25 02:00 207 1.7
2019-Mar-25 01:55 213 1.7
2019-Mar-25 01:50 213 1.7
2019-Mar-25 01:45 213 1.7
2019-Mar-25 01:40 213 1.7
2019-Mar-25 01:35 213 1.7
2019-Mar-25 01:30 213 2.2
2019-Mar-25 01:25 213 2.2
2019-Mar-25 01:20 213 2.2
2019-Mar-25 01:15 213 2.2
2019-Mar-25 01:10 213 2.2
2019-Mar-25 01:06 213 2.2
2019-Mar-25 01:00 211 2.2
2019-Mar-25 00:55 211 2.8
2019-Mar-25 00:50 210 2.8
2019-Mar-25 00:45 215 2.8
2019-Mar-25 00:40 215 2.8
2019-Mar-25 00:35 213 2.8
2019-Mar-25 00:30 226 2.2
2019-Mar-25 00:25 236 2.2
2019-Mar-25 00:20 213 2.8
2019-Mar-25 00:15 204 2.8
2019-Mar-25 00:10 203 2.8
2019-Mar-25 00:05 202 2.8
2019-Mar-25 00:00 214 0 gusting 1 2.8
2019-Mar-24 23:55 221 2.8
2019-Mar-24 23:50 220 2.8
2019-Mar-24 23:45 218 0 gusting 4 2.8
2019-Mar-24 23:40 237 0 gusting 2 3.3
2019-Mar-24 23:35 210 2.8
2019-Mar-24 23:30 259 3.3
2019-Mar-24 23:25 229 3.3
2019-Mar-24 23:20 230 0 gusting 2 3.3
2019-Mar-24 23:15 229 3.3
2019-Mar-24 23:10 226 3 gusting 7 3.3
2019-Mar-24 23:05 224 2 gusting 7 3.9
2019-Mar-24 23:00 246 0 gusting 6 3.9
2019-Mar-24 22:55 236 2 gusting 6 3.9
2019-Mar-24 22:50 238 1 gusting 6 3.9
2019-Mar-24 22:45 248 2 gusting 7 3.9
2019-Mar-24 22:40 210 2 gusting 10 3.9
2019-Mar-24 22:35 247 5 gusting 10 3.9
2019-Mar-24 22:30 221 3 gusting 7 3.9
2019-Mar-24 22:25 229 3 gusting 7 3.9
2019-Mar-24 22:20 215 2 gusting 8 3.3
2019-Mar-24 22:15 221 1 gusting 6 3.3
2019-Mar-24 22:10 211 4 gusting 8 3.3
2019-Mar-24 22:05 215 2 gusting 8 3.3
2019-Mar-24 22:00 209 2 gusting 6 3.3
2019-Mar-24 21:55 234 1 gusting 12 3.3
2019-Mar-24 21:50 219 0 gusting 12 3.3
2019-Mar-24 21:45 225 3 gusting 8 3.3
2019-Mar-24 21:40 245 5 gusting 8 3.3
2019-Mar-24 21:35 213 3 gusting 9 3.3
2019-Mar-24 21:30 225 3 gusting 10 3.9
2019-Mar-24 21:25 237 3 gusting 10 3.9
2019-Mar-24 21:20 203 5 gusting 8 3.9
2019-Mar-24 21:15 221 2 gusting 8 3.9
2019-Mar-24 21:10 211 5 gusting 8 3.9
2019-Mar-24 21:06 223 4 gusting 8 3.9
2019-Mar-24 21:00 223 1 gusting 6 3.9
2019-Mar-24 20:55 232 3 gusting 8 3.9
2019-Mar-24 20:50 206 4 gusting 8 3.9
2019-Mar-24 20:45 220 4 gusting 8 3.9
2019-Mar-24 20:40 259 2 gusting 6 3.9
2019-Mar-24 20:35 216 3 gusting 8 3.9
2019-Mar-24 20:30 230 3 gusting 7 3.9
2019-Mar-24 20:25 206 3 gusting 6 3.3
2019-Mar-24 20:20 225 1 gusting 5 3.3
2019-Mar-24 20:15 225 2 gusting 6 3.3
2019-Mar-24 20:10 242 2 gusting 5 3.3
2019-Mar-24 20:05 223 0 gusting 4 3.3
2019-Mar-24 20:00 210 0 gusting 4 3.9
2019-Mar-24 19:55 221 1 gusting 7 3.9
2019-Mar-24 19:50 209 2 gusting 11 3.9
2019-Mar-24 19:45 217 1 gusting 11 3.9
2019-Mar-24 19:40 205 3 gusting 8 3.9
2019-Mar-24 19:35 235 3 gusting 8 3.9
2019-Mar-24 19:30 209 2 gusting 11 3.9
2019-Mar-24 19:25 211 4 gusting 11 3.9
2019-Mar-24 19:20 207 2 gusting 7 3.9
2019-Mar-24 19:15 214 2 gusting 12 3.9
2019-Mar-24 19:10 214 6 gusting 12 3.9
2019-Mar-24 19:05 209 4 gusting 9 3.9
2019-Mar-24 19:00 232 5 gusting 12 3.9
2019-Mar-24 18:55 202 6 gusting 12 3.9
2019-Mar-24 18:50 210 5 gusting 11 3.9
2019-Mar-24 18:45 219 5 gusting 11 3.9
2019-Mar-24 18:40 263 2 gusting 7 3.9
2019-Mar-24 18:35 214 2 gusting 7 4.4
2019-Mar-24 18:30 238 0 gusting 8 4.4
2019-Mar-24 18:25 215 4 gusting 10 4.4
2019-Mar-24 18:20 213 4 gusting 16 4.4
2019-Mar-24 18:15 215 7 gusting 16 4.4
2019-Mar-24 18:10 209 5 gusting 14 4.4
2019-Mar-24 18:05 217 6 gusting 13 4.4
2019-Mar-24 18:00 233 7 gusting 13 5.0
2019-Mar-24 17:55 200 6 gusting 13 5.0
2019-Mar-24 17:50 238 4 gusting 9 5.0
2019-Mar-24 17:45 242 5 gusting 12 5.0
2019-Mar-24 17:40 217 6 gusting 15 5.0
2019-Mar-24 17:35 229 5 gusting 15 5.0
2019-Mar-24 17:30 214 4 gusting 17 5.6
2019-Mar-24 17:25 242 4 gusting 15 5.6
2019-Mar-24 17:20 233 5 gusting 15 5.6
2019-Mar-24 17:15 205 6 gusting 24 5.6
2019-Mar-24 17:10 196 10 gusting 24 6.1
2019-Mar-24 17:05 271 8 gusting 15 6.1
2019-Mar-24 17:00 248 7 gusting 19 6.1
2019-Mar-24 16:55 236 9 gusting 22 6.1
2019-Mar-24 16:50 244 10 gusting 22 6.1
2019-Mar-24 16:45 188 9 gusting 17 6.7
2019-Mar-24 16:40 241 7 gusting 20 6.7
2019-Mar-24 16:35 240 5 gusting 15 6.7
2019-Mar-24 16:30 260 8 gusting 19 6.7
2019-Mar-24 16:25 249 11 gusting 21 6.7
2019-Mar-24 16:20 250 12 gusting 21 6.7
2019-Mar-24 16:15 217 10 gusting 18 6.7
2019-Mar-24 16:10 221 10 gusting 24 6.7
2019-Mar-24 16:05 261 13 gusting 24 6.7
2019-Mar-24 16:00 216 13 gusting 21 7.2
2019-Mar-24 15:55 205 12 gusting 21 7.2
2019-Mar-24 15:50 223 11 gusting 23 7.2
2019-Mar-24 15:45 219 13 gusting 23 7.2
2019-Mar-24 15:40 240 11 gusting 22 7.2
2019-Mar-24 15:35 246 13 gusting 26 7.8
2019-Mar-24 15:30 192 14 gusting 26 7.8
2019-Mar-24 15:25 215 8 gusting 18 7.8
2019-Mar-24 15:20 221 8 gusting 17 7.8
2019-Mar-24 15:15 249 10 gusting 20 7.8
2019-Mar-24 15:10 205 10 gusting 22 7.8
2019-Mar-24 15:05 241 12 gusting 24 7.8
2019-Mar-24 15:00 249 9 gusting 24 7.8
2019-Mar-24 14:55 230 11 gusting 20 7.8
2019-Mar-24 14:50 217 9 gusting 24 8.3
2019-Mar-24 14:45 242 12 gusting 25 8.3
2019-Mar-24 14:40 219 13 gusting 27 8.3
2019-Mar-24 14:35 223 15 gusting 27 8.3
2019-Mar-24 14:30 261 10 gusting 27 8.9
2019-Mar-24 14:25 227 8.9
2019-Mar-24 14:20 219 4 gusting 28 8.9
2019-Mar-24 14:15 191 14 gusting 26 8.9
2019-Mar-24 14:10 237 12 gusting 20 8.9
2019-Mar-24 14:05 254 11 gusting 20 8.9
2019-Mar-24 14:00 250 12 gusting 25 8.3
2019-Mar-24 13:55 236 9 gusting 25 8.3
2019-Mar-24 13:50 265 7 gusting 24 8.9
2019-Mar-24 13:45 214 12 gusting 24 8.9
2019-Mar-24 13:40 274 13 gusting 24 8.9
2019-Mar-24 13:35 257 18 gusting 26 8.9
2019-Mar-24 13:30 231 17 gusting 25 8.9
2019-Mar-24 13:25 244 18 gusting 26 8.9
2019-Mar-24 13:20 243 15 gusting 25 8.9
2019-Mar-24 13:15 246 11 gusting 30 8.9
2019-Mar-24 13:10 252 12 gusting 30 8.9
2019-Mar-24 13:05 229 18 gusting 26 8.9
2019-Mar-24 13:00 222 17 gusting 23 8.9
2019-Mar-24 12:55 244 12 gusting 26 8.9
2019-Mar-24 12:50 273 15 gusting 26 8.9
2019-Mar-24 12:45 259 13 gusting 26 8.9
2019-Mar-24 12:40 257 13 gusting 20 8.9
2019-Mar-24 12:35 222 10 gusting 19 8.9
2019-Mar-24 12:30 247 11 gusting 25 8.9
2019-Mar-24 12:25 210 12 gusting 26 9.4
2019-Mar-24 12:20 214 16 gusting 26 9.4
2019-Mar-24 12:15 179 13 gusting 23 9.4
2019-Mar-24 12:10 254 10 gusting 24 8.9
2019-Mar-24 12:06 208 16 gusting 24 8.9
2019-Mar-24 12:00 244 14 gusting 23 8.9
2019-Mar-24 11:55 221 10 gusting 24 8.9
2019-Mar-24 11:50 218 10 gusting 24 8.3
2019-Mar-24 11:45 211 7 gusting 18 8.3
2019-Mar-24 11:40 234 9 gusting 23 8.3
2019-Mar-24 11:35 219 13 gusting 23 8.3
2019-Mar-24 11:30 261 13 gusting 26 8.3
2019-Mar-24 11:25 207 14 gusting 26 8.3
2019-Mar-24 11:20 262 12 gusting 23 8.3
2019-Mar-24 11:15 206 12 gusting 22 8.3
2019-Mar-24 11:10 231 14 gusting 25 8.3
2019-Mar-24 11:05 229 13 gusting 25 8.3
2019-Mar-24 11:00 264 15 gusting 22 8.3
2019-Mar-24 10:55 252 12 gusting 21 7.8
2019-Mar-24 10:50 254 9 gusting 19 7.8
2019-Mar-24 10:45 241 10 gusting 26 8.3
2019-Mar-24 10:40 240 13 gusting 26 8.3
2019-Mar-24 10:35 245 9 gusting 20 8.3
2019-Mar-24 10:30 268 11 gusting 20 8.3
2019-Mar-24 10:25 238 12 gusting 21 7.8
2019-Mar-24 10:20 242 13 gusting 21 7.8
2019-Mar-24 10:15 246 13 gusting 21 7.8
2019-Mar-24 10:10 220 8 gusting 18 8.3
2019-Mar-24 10:05 246 8 gusting 20 8.3
2019-Mar-24 10:00 265 13 gusting 20 8.3
2019-Mar-24 09:55 247 9 gusting 19 8.3
2019-Mar-24 09:50 219 9 gusting 19 8.3
2019-Mar-24 09:45 205 7 gusting 19 7.8
2019-Mar-24 09:40 225 12 gusting 22 7.8
2019-Mar-24 09:35 234 12 gusting 22 7.8
2019-Mar-24 09:30 221 11 gusting 19 7.8
2019-Mar-24 09:25 237 11 gusting 21 7.8
2019-Mar-24 09:20 242 13 gusting 24 7.8
2019-Mar-24 09:15 203 13 gusting 25 7.8
2019-Mar-24 09:10 225 15 gusting 25 7.8
2019-Mar-24 09:06 244 5 gusting 18 7.8
2019-Mar-24 09:00 254 7.8
2019-Mar-24 08:55 226 7.2
2019-Mar-24 08:50 252 7.2
2019-Mar-24 08:45 273 7.2
2019-Mar-24 08:40 205 7.2
2019-Mar-24 08:35 261 7.2
2019-Mar-24 08:30 225 7.2
2019-Mar-24 08:25 253 6.7
2019-Mar-24 08:20 202 6.7
2019-Mar-24 08:15 217 6.7
2019-Mar-24 08:10 227 6.1
2019-Mar-24 08:05 242 6.7
2019-Mar-24 08:00 257 6.1
2019-Mar-24 07:55 243 6.1
2019-Mar-24 07:50 223 5.6
2019-Mar-24 07:45 218 5.6
2019-Mar-24 07:40 225 5.6
2019-Mar-24 07:35 275 5.6
2019-Mar-24 07:30 252 5.6
2019-Mar-24 07:25 209 5.0
2019-Mar-24 07:20 250 5.0
2019-Mar-24 07:15 254 5.0
2019-Mar-24 07:10 223 5.0
2019-Mar-24 07:06 218 4.4
2019-Mar-24 07:00 228 4.4
2019-Mar-24 06:55 238 4.4
2019-Mar-24 06:50 257 4.4
2019-Mar-24 06:45 215 4.4
2019-Mar-24 06:40 250 3.9
2019-Mar-24 06:35 202 3.9
2019-Mar-24 06:30 249 3.9
2019-Mar-24 06:25 238 3.9
2019-Mar-24 06:20 203 3.9
2019-Mar-24 06:15 252 3.3
2019-Mar-24 06:10 219 3.3
2019-Mar-24 06:05 269 3.3
2019-Mar-24 06:00 238 2.8
2019-Mar-24 05:55 233 2.8
2019-Mar-24 05:50 207 2.8
2019-Mar-24 05:45 217 2.8
2019-Mar-24 05:40 226 2.2
2019-Mar-24 05:35 222 2.2
2019-Mar-24 05:30 269 2.2
2019-Mar-24 05:25 248 2.2
2019-Mar-24 05:20 219 2.2
2019-Mar-24 05:10 240 2.2
2019-Mar-24 05:06 235 2.2
2019-Mar-24 05:00 254 2.2
2019-Mar-24 04:55 250 2.2
2019-Mar-24 04:50 246 2.2
2019-Mar-24 04:45 231 2.2
2019-Mar-24 04:40 239 2.2
2019-Mar-24 04:35 268 2.2
2019-Mar-24 04:30 249 2.2
2019-Mar-24 04:25 244 2.2
2019-Mar-24 04:20 245 2.2
2019-Mar-24 04:15 253 2.2
2019-Mar-24 04:10 236 2.2
2019-Mar-24 04:05 237 2.2
2019-Mar-24 04:00 229 2.2
2019-Mar-24 03:55 234 2.2
2019-Mar-24 03:50 211 2.2
2019-Mar-24 03:45 250 2.8
2019-Mar-24 03:40 248 2.8
2019-Mar-24 03:35 243 2.8
2019-Mar-24 03:30 269 2.8
2019-Mar-24 03:25 253 2.8
2019-Mar-24 03:20 243 2.8
2019-Mar-24 03:15 242 2.8
2019-Mar-24 03:10 210 2.8
2019-Mar-24 03:05 229 2.8
2019-Mar-24 03:00 218 2.8
2019-Mar-24 02:55 250 2.8
2019-Mar-24 02:50 244 2.8
2019-Mar-24 02:45 240 2.8
2019-Mar-24 02:40 237 2.8
2019-Mar-24 02:35 237 2.8
2019-Mar-24 02:30 256 2.8
2019-Mar-24 02:25 241 2.8
2019-Mar-24 02:20 232 2.8
2019-Mar-24 02:15 246 2.8
2019-Mar-24 02:10 253 2.8
2019-Mar-24 02:06 267 2.8
2019-Mar-24 02:00 230 2.8
2019-Mar-24 01:55 237 2.8
2019-Mar-24 01:50 259 2.8
2019-Mar-24 01:45 268 2.8
2019-Mar-24 01:40 244 3.3
2019-Mar-24 01:35 248 3.3
2019-Mar-24 01:30 260 3.3
2019-Mar-24 01:25 247 2.8
2019-Mar-24 01:20 253 2.8
2019-Mar-24 01:15 267 3.3
2019-Mar-24 01:10 258 3.3
2019-Mar-24 01:05 238 3.3
2019-Mar-24 01:00 242 3.3
2019-Mar-24 00:55 211 3.3
2019-Mar-24 00:50 257 3.3
2019-Mar-24 00:45 238 3.3
2019-Mar-24 00:40 238 3.3
2019-Mar-24 00:35 218 3.3
2019-Mar-24 00:30 235 3.3
2019-Mar-24 00:25 244 3.9
2019-Mar-24 00:20 225 3.9
2019-Mar-24 00:15 221 3.3
2019-Mar-24 00:10 248 3.3
2019-Mar-24 00:05 229 3.9
2019-Mar-24 00:00 257 3.9
2019-Mar-23 23:55 227 3.9
2019-Mar-23 23:50 226 3.9
2019-Mar-23 23:45 232 3.9
2019-Mar-23 23:40 249 3.9
2019-Mar-23 23:35 219 3.9
2019-Mar-23 23:30 231 3.9
2019-Mar-23 23:25 252 3.9
2019-Mar-23 23:20 220 3.9
2019-Mar-23 23:15 262 3.9
2019-Mar-23 23:10 231 3.9
2019-Mar-23 23:06 253 3.9
2019-Mar-23 23:00 226 3.9
2019-Mar-23 22:55 236 3.9
2019-Mar-23 22:50 219 3.9
2019-Mar-23 22:45 218 3.9
2019-Mar-23 22:40 267 4.4
2019-Mar-23 22:35 241 4.4
2019-Mar-23 22:30 252 4.4
2019-Mar-23 22:25 239 4.4
2019-Mar-23 22:20 242 4.4
2019-Mar-23 22:15 259 4.4
2019-Mar-23 22:10 243 4.4
2019-Mar-23 22:05 231 4.4
2019-Mar-23 22:00 239 4.4
2019-Mar-23 21:55 230 4.4
2019-Mar-23 21:50 240 4.4
2019-Mar-23 21:45 226 4.4
2019-Mar-23 21:40 238 4.4
2019-Mar-23 21:35 230 4.4
2019-Mar-23 21:30 250 4.4
2019-Mar-23 21:25 226 4.4
2019-Mar-23 21:20 242 5.0
2019-Mar-23 21:15 249 5.0
2019-Mar-23 21:10 203 5.0
2019-Mar-23 21:06 244 5.0
2019-Mar-23 21:00 226 5.0
2019-Mar-23 20:55 242 5.0
2019-Mar-23 20:50 217 5.0
2019-Mar-23 20:45 254 5.0
2019-Mar-23 20:40 248 5.0
2019-Mar-23 20:35 252 5.0
2019-Mar-23 20:30 223 5.0
2019-Mar-23 20:25 227 5.0
2019-Mar-23 20:20 248 5.0
2019-Mar-23 20:15 240 5.0
2019-Mar-23 20:10 209 5.0
2019-Mar-23 20:06 227 5.0
2019-Mar-23 20:00 256 5.6
2019-Mar-23 19:55 236 5.6
2019-Mar-23 19:50 226 5.6
2019-Mar-23 19:45 217 5.6
2019-Mar-23 19:40 258 5.6
2019-Mar-23 19:35 242 5.6
2019-Mar-23 19:30 232 5.6
2019-Mar-23 19:25 225 5.6
2019-Mar-23 19:20 251 5.6
2019-Mar-23 19:15 232 5.6
2019-Mar-23 19:10 211 5.6
2019-Mar-23 19:06 252 5.6
2019-Mar-23 19:00 222 5.6
2019-Mar-23 18:55 241 5.6
2019-Mar-23 18:50 229 5.6
2019-Mar-23 18:45 202 5.6
2019-Mar-23 18:40 209 5.6
2019-Mar-23 18:35 236 5.6
2019-Mar-23 18:30 249 5.6
2019-Mar-23 18:25 211 5.6
2019-Mar-23 18:20 248 5.6
2019-Mar-23 18:15 220 6.1
2019-Mar-23 18:10 236 6.1
2019-Mar-23 18:05 240 6.1
2019-Mar-23 18:00 215 6.1
2019-Mar-23 17:55 239 6.1
2019-Mar-23 17:50 213 6.1
2019-Mar-23 17:45 248 6.1
2019-Mar-23 17:40 257 6.1
2019-Mar-23 17:35 238 6.1
2019-Mar-23 17:30 228 6.1
2019-Mar-23 17:25 206 6.7
2019-Mar-23 17:20 213 6.7
2019-Mar-23 17:15 227 6.7
2019-Mar-23 17:10 227 6.7
2019-Mar-23 17:05 225 6.7
2019-Mar-23 17:00 229 6.7
2019-Mar-23 16:55 225 7.2
2019-Mar-23 16:50 238 7.2
2019-Mar-23 16:45 268 13 gusting 27 7.2
2019-Mar-23 16:40 242 7.2
2019-Mar-23 16:35 229 7.2
2019-Mar-23 16:30 210 7.8
2019-Mar-23 16:25 188 7.8
2019-Mar-23 16:20 200 7.8
2019-Mar-23 16:15 248 7.8
2019-Mar-23 16:10 215 7.8
2019-Mar-23 16:05 236 7.8
2019-Mar-23 16:00 234 8.3
2019-Mar-23 15:55 258 8.3
2019-Mar-23 15:50 237 8.3
2019-Mar-23 15:45 215 8.3
2019-Mar-23 15:40 207 8.3
2019-Mar-23 15:35 223 8.3
2019-Mar-23 15:30 217 8.3
2019-Mar-23 15:25 252 8.3
2019-Mar-23 15:20 211 8.3
2019-Mar-23 15:15 265 8.3
2019-Mar-23 15:10 225 8.9
2019-Mar-23 15:05 217 8.9
2019-Mar-23 15:00 202 8.9
2019-Mar-23 14:55 219 8.9
2019-Mar-23 14:50 227 8.9
2019-Mar-23 14:45 201 8.9
2019-Mar-23 14:40 200 8.9
2019-Mar-23 14:35 223 8.9
2019-Mar-23 14:30 250 8.9
2019-Mar-23 14:25 214 8.9
2019-Mar-23 14:20 224 8.9
2019-Mar-23 14:15 237 8.9
2019-Mar-23 14:10 234 8.9
2019-Mar-23 14:05 260 8.9
2019-Mar-23 14:00 216 9.4
2019-Mar-23 13:55 250 9.4
2019-Mar-23 13:50 198 9.4
2019-Mar-23 13:45 252 9.4
2019-Mar-23 13:40 233 9.4
2019-Mar-23 13:35 221 9.4
2019-Mar-23 13:30 250 9.4
2019-Mar-23 13:25 263 9.4
2019-Mar-23 13:20 236 9.4
2019-Mar-23 13:15 229 9.4
2019-Mar-23 13:10 252 9.4
2019-Mar-23 13:06 220 9.4
2019-Mar-23 13:00 243 9.4
2019-Mar-23 12:55 227 9.4
2019-Mar-23 12:50 228 9.4
2019-Mar-23 12:45 242 9.4
2019-Mar-23 12:40 239 9.4
2019-Mar-23 12:35 210 10.0
2019-Mar-23 12:30 291 10.0
2019-Mar-23 12:25 238 10.0
2019-Mar-23 12:20 218 10.0
2019-Mar-23 12:15 261 10.0
2019-Mar-23 12:10 241 10.0
2019-Mar-23 12:05 241 10.0
2019-Mar-23 12:00 236 10.0
2019-Mar-23 11:55 227 10.0
2019-Mar-23 11:50 246 10.0
2019-Mar-23 11:45 254 10.0
2019-Mar-23 11:40 280 10.0
2019-Mar-23 11:35 207 10.0
2019-Mar-23 11:30 255 10.0
2019-Mar-23 11:25 219 10.6
2019-Mar-23 11:20 257 10.6
2019-Mar-23 11:15 233 10.6
2019-Mar-23 11:10 260 10.6
2019-Mar-23 11:05 202 1 gusting 21 10.6
2019-Mar-23 11:00 238 9 gusting 26 10.6
2019-Mar-23 10:55 260 10 gusting 26 10.6
2019-Mar-23 10:50 242 11 gusting 21 10.6
2019-Mar-23 10:45 221 13 gusting 24 10.6
2019-Mar-23 10:40 238 13 gusting 24 10.6
2019-Mar-23 10:35 180 10 gusting 19 10.6
2019-Mar-23 10:30 261 7 gusting 25 10.6
2019-Mar-23 10:25 234 12 gusting 25 10.0
2019-Mar-23 10:20 209 10 gusting 26 10.0
2019-Mar-23 10:15 277 16 gusting 26 10.0
2019-Mar-23 10:10 242 11 gusting 21 10.0
2019-Mar-23 10:05 227 2 gusting 17 9.4
2019-Mar-23 10:00 263 0 gusting 42 10.0
2019-Mar-23 09:55 221 6 gusting 42 9.4
2019-Mar-23 09:50 261 13 gusting 25 8.9
2019-Mar-23 09:45 243 13 gusting 25 8.9
2019-Mar-23 09:40 251 13 gusting 25 9.4
2019-Mar-23 09:35 253 15 gusting 25 10.0
2019-Mar-23 09:30 221 15 gusting 24 10.0
2019-Mar-23 09:25 269 10 gusting 27 9.4
2019-Mar-23 09:20 273 19 gusting 27 10.0
2019-Mar-23 09:15 215 9 gusting 20 9.4
2019-Mar-23 09:10 245 10 gusting 22 9.4
2019-Mar-23 09:06 207 13 gusting 22 9.4
2019-Mar-23 09:00 242 16 gusting 24 9.4